{"data":{"norad_id":65145,"epoch":"2026-05-25T01:32:49.287840Z","epoch_age_seconds":66103,"freshness":"FRESH","line1":"1 65145U 25171P   26145.06445935  .00002098  00000+0  30416-3 0  9996","line2":"2 65145  51.8990 170.3659 0000386  79.8418 280.2588 14.79928316 44348","mean_motion":14.79928316,"eccentricity":3.86e-5,"inclination_deg":51.899,"raan_deg":170.3659,"arg_perigee_deg":79.8418,"mean_anomaly_deg":280.2588,"bstar":0.00030416,"rev_number":4434,"period_min":97.302010133307,"perigee_km":629.27991870706,"apogee_km":629.82091217553,"semimajor_km":7007.6874154413,"source":"CELESTRAK","updated_at":"2026-05-25T13:38:05.168493Z"}}